Regional Weather Roundup
Issued by NWS

Home | Current Version | Previous Version | Graphics & Text | Print | Product List | Glossary On
Versions: 1 2 3 4 5 6 7 8 9 10 11 12 13 14 15 16 17 18 19 20 21 22 23 24 25 26 27 28 29 30 31 32 33 34 35 36 37 38 39 40 41 42 43 44 45 46 47 48 49 50
000
ASUS43 KOAX 070102
RWRNE

WEATHER ROUNDUP FOR NEBRASKA
NATIONAL WEATHER SERVICE OMAHA NE
800 PM CDT WED MAY 06 2015

NOTES: SATELLITE DATA IS BEING USED TO AUGMENT CLOUD COVER ABOVE
       12000 FEET.
       "FAIR" INDICATES FEW OR NO CLOUDS BELOW 12,000 FEET WITH NO
       SIGNIFICANT WEATHER AND/OR OBSTRUCTIONS TO VISIBILITY.

  * THESE STATIONS DO NOT REPORT WEATHER SUCH AS RAIN...SNOW OR FOG.

NEZ001>004-019>022-054>056-070200-
NEBRASKA PANHANDLE

CITY           SKY/WX    TMP DP  RH WIND       PRES   REMARKS
SCOTTSBLUFF    CLOUDY    58  54  86 NW12      29.66R
ALLIANCE       LGT RAIN  57  55  93 SW5       29.62R FOG
CHADRON        CLOUDY    58  52  80 NW22G30   29.62R
SIDNEY         CLOUDY    57  53  86 NW12      29.66R
$$

NEZ057>060-069>072-079>082-070200-
SOUTHWEST NEBRASKA

CITY           SKY/WX    TMP DP  RH WIND       PRES   REMARKS
NORTH PLATTE   PTCLDY    65  53  65 S7        29.58S
IMPERIAL       CLOUDY    63  54  72 SW10      29.57F
MCCOOK         LGT RAIN  68  55  63 S8        29.57S
$$

NEZ005>010-023>029-035>040-094-070200-
NORTH CENTRAL NEBRASKA

CITY           SKY/WX    TMP DP  RH WIND       PRES   REMARKS
VALENTINE      CLOUDY    62  57  83 CALM      29.60S
BROKEN BOW     CLOUDY    61  59  93 SE10      29.59F
ORD            CLOUDY    62  58  86 SE8       29.59F
$$

NEZ041-046>049-061>064-073>077-083>087-070200-
SOUTH CENTRAL NEBRASKA

CITY           SKY/WX    TMP DP  RH WIND       PRES   REMARKS
GRAND ISLAND   CLOUDY    59  56  89 S12       29.62S
HASTINGS       CLOUDY    59  56  89 SE13      29.61F
KEARNEY *      CLOUDY    63  57  82 SE14      29.61R
$$

NEZ011>018-030>034-042>045-070200-
NORTHEAST NEBRASKA

CITY           SKY/WX    TMP DP  RH WIND       PRES   REMARKS
NORFOLK        LGT RAIN  65  62  90 SE21G26   29.64F
COLUMBUS *     CLOUDY    63  57  82 SE13G21   29.67F
TEKAMAH        CLOUDY    69  62  78 SE21G30   29.73F
$$

NEZ050>053-065>068-078-088>093-070200-
SOUTHEAST NEBRASKA

CITY           SKY/WX    TMP DP  RH WIND       PRES   REMARKS
LINCOLN        LGT RAIN  66  62  87 SE16G25   29.70F
OMAHA EPPLEY   CLOUDY    70  59  68 SE18      29.76S
FALLS CITY     MOCLDY    68  60  75 SE16G25   29.76F
$$

NEZ044-045-051>053-067-070200-
OMAHA AREA

CITY           SKY/WX    TMP DP  RH WIND       PRES   REMARKS
OMAHA EPPLEY   CLOUDY    70  59  68 SE18      29.76S
$$



USA.gov is the U.S. government's official web portal to all federal, state and local government web resources and services.